Location: Barrio Pajares
(40.5500°N, 4.1667°W)
Time: 19:00:42
(UTC+00:00)

Cosmos 1980 Rocket - Pass Details

Date: 18 April 2024
Orbit: 827 x 851 km, 71.0° (Epoch: 17 May)

Event Time Altitude Azimuth Distance (km) Brightness Sun altitude
Exits shadow 23:36:39 25° 312° (NW) 1,622 4.0 -37.4°
Drops below altitude 10° 23:40:54 10° 1° (N) 2,461 5.3 -37.6°
Sets 23:43:48 0° 14° (NNE) 3,404 6.1 -37.7°
